Simultaneous Nadir Overpasses (SNOs) Predictions

Prediction of SNOs near equator between AQUA and NPP Satellite Orbit:

Table of predicted SNOs near equator for the next 14.0 days since TLE Epoch: 5/17/2014
Index Date (AQUA) Time (AQUA) AQUA Lat,Lon Date (NPP) Time (NPP) NPP Lat,Lon Distance(km) Time Diff (sec)
1 05/18/2014 20:58:58 29.94,-115.48 05/18/2014 20:49:28 30.09,-114.86 62.27 570
2 05/18/2014 21:48:21 -29.97, 52.16 05/18/2014 21:40:08 -30.03, 52.49 31.61 493
3 05/18/2014 22:37:38 29.16,-140.00 05/18/2014 22:30:42 29.16,-139.98 2.48 416
4 05/18/2014 23:20:48 -6.72, 32.83 05/18/2014 23:15:00 -6.72, 32.83 0.62 348
5 05/19/2014 00:04:49 -13.21,-155.28 05/19/2014 00:00:10 -13.22,-155.35 7.57 279
6 05/19/2014 00:52:57 17.69, 13.38 05/19/2014 00:49:33 17.78, 13.06 35.14 204
7 05/19/2014 01:41:11 -22.31,-177.93 05/19/2014 01:39:03 -22.42,-178.50 60.33 128
8 05/19/2014 02:29:18 26.85, -9.17 05/19/2014 02:28:26 26.98, -10.00 83.32 52
9 05/21/2014 13:15:25 30.00, 0.39 05/21/2014 13:06:27 30.09, 0.91 51.26 538
10 05/21/2014 14:04:47 -29.97, 168.05 05/21/2014 13:57:07 -30.04, 168.26 20.87 460
11 05/21/2014 14:52:19 22.84, -22.55 05/21/2014 14:45:53 22.84, -22.55 0.23 386
12 05/21/2014 15:34:53 1.80, 150.53 05/21/2014 15:29:34 1.80, 150.52 0.67 319
13 05/21/2014 16:20:44 -15.08, -38.98 05/21/2014 16:16:37 -15.10, -39.14 17.26 247
14 05/21/2014 17:08:51 19.62, 129.71 05/21/2014 17:05:59 19.71, 129.30 43.84 172
15 05/21/2014 17:57:05 -24.24, -61.58 05/21/2014 17:55:29 -24.35, -62.24 68.25 96
16 05/21/2014 18:45:13 28.71, 107.19 05/21/2014 18:44:52 28.91, 106.29 90.05 21
17 05/24/2014 04:42:18 -29.95, -51.33 05/24/2014 04:32:36 -30.10, -50.61 70.79 582
18 05/24/2014 05:31:49 29.98, 116.29 05/24/2014 05:23:24 30.04, 116.70 40.20 505
19 05/24/2014 06:21:11 -29.95, -76.05 05/24/2014 06:14:04 -29.98, -75.96 9.74 427
20 05/24/2014 07:06:36 15.16, 95.11 05/24/2014 07:00:40 15.16, 95.10 1.38 356
21 05/24/2014 07:48:36 11.55, -91.49 05/24/2014 07:43:46 11.54, -91.49 0.28 290
22 05/24/2014 08:36:36 -17.03, 77.35 05/24/2014 08:33:01 -17.09, 77.11 26.64 215
23 05/24/2014 09:24:42 21.62,-113.93 05/24/2014 09:22:23 21.70,-114.44 52.56 139
24 05/24/2014 10:12:58 -26.12, 54.77 05/24/2014 10:11:54 -26.27, 54.03 75.98 64
25 05/24/2014 11:01:17 29.93,-136.60 05/24/2014 11:01:29 30.13,-137.60 98.31 12
26 05/26/2014 20:58:43 -29.97, 64.56 05/26/2014 20:49:35 -30.11, 65.16 59.39 548
27 05/26/2014 21:48:13 29.95,-127.81 05/26/2014 21:40:22 30.00,-127.52 28.80 471
28 05/26/2014 22:37:16 -28.77, 40.15 05/26/2014 22:30:42 -28.77, 40.15 0.08 394
29 05/26/2014 23:19:59 4.19,-146.62 05/26/2014 23:14:32 4.19,-146.61 0.71 327
30 05/27/2014 00:04:12 14.48, 25.05 05/26/2014 23:59:55 14.47, 24.96 9.63 257
31 05/27/2014 00:52:27 -19.05,-166.29 05/27/2014 00:49:25 -19.12,-166.63 36.01 182
32 05/27/2014 01:40:34 23.58, 2.43 05/27/2014 01:38:48 23.68, 1.84 61.11 106
33 05/27/2014 02:28:49 -28.13, 171.17 05/27/2014 02:28:18 -28.30, 170.35 83.27 31
34 05/29/2014 12:25:44 29.95, 12.81 05/29/2014 12:15:53 30.14, 13.59 78.35 591
35 05/29/2014 13:15:07 -29.98,-179.54 05/29/2014 13:06:33 -30.07,-179.06 47.71 514
36 05/29/2014 14:04:37 29.96, -11.91 05/29/2014 13:57:21 30.02, -11.75 17.41 436
37 05/29/2014 14:51:25 -20.67, 158.03 05/29/2014 14:45:22 -20.67, 158.02 0.63 363
38 05/29/2014 15:33:33 -6.07, -28.53 05/29/2014 15:28:36 -6.08, -28.52 1.14 297
39 05/29/2014 16:20:03 16.46, 141.39 05/29/2014 16:16:19 16.50, 141.22 19.15 224
40 05/29/2014 17:08:17 -21.09, -49.92 05/29/2014 17:05:49 -21.15, -50.36 45.39 148
41 05/29/2014 17:56:25 25.56, 118.81 05/29/2014 17:55:12 25.70, 118.13 69.33 73
42 05/29/2014 18:44:43 -29.92, -72.47 05/29/2014 18:44:46 -30.09, -73.39 90.85 3




NCC Satellite Simultaneous Nadir Overpasses (SNOs) Prediction Service
